Tracking 23752 objects as of 24-Oct-2021
HD Live streaming from Space Station
objects crossing your sky now

SL-14 DEB

Track SL-14 DEB now!
10-day predictions


NORAD ID: 46465
Int'l Code: 1991-056DA
Perigee: 1,203.2 km
Apogee: 1,245.8 km
Inclination: 82.6 °
Period: 109.8 minutes
Semi major axis: 7595 km
RCS: Unknown
Launch date: August 15, 1991
Source: Commonwealth of Independent States (former USSR) (CIS)
Launch site: PLESETSK MISSILE AND SPACE COMPLEX (PKMTR)

Note: This is SATELLITE DEBRIS
aabbcc
Your satellite tracking list
Your tracking list is empty




NASA's NSSDC Master Catalog

Two Line Element Set (TLE):
1 46465U 91056DA  21296.64499765 -.00000263  00000-0 -77552-3 0  9998
2 46465  82.5590 263.1607 0028043 179.2077 180.9092 13.11500713 58421
Source of the keplerian elements: AFSPC